Location: Maiden
(35.5760°N, 81.2120°W)
Time: 05:27:04
(UTC-04:00)

Cosmos 1378 - Pass Details

Date: 14 June 2018
Orbit: 494 x 504 km, 82.5° (Epoch: 21 October)

Event Time Altitude Azimuth Distance (km) Brightness Sun altitude
Exits shadow 22:22:06 - 205° (SSW) 1,820 5.8 -16.9°
Reaches altitude 10° 22:22:25 10° 206° (SSW) 1,698 5.6 -16.9°
Maximum altitude 22:25:58 43° 279° (W) 708 4.2 -17.4°
Drops below altitude 10° 22:29:33 10° 353° (N) 1,704 6.6 -17.9°
Sets 22:31:44 0° 360° (N) 2,589 7.5 -18.2°
